| time (UTC) | temp C | wind direction | speed KPH | gust KPH | rain 1hr cm | rain 24hr cm | rain mn cm | humidity % | barometer mb |
| 20260831215032 | 26 | 304 | 8.0 | 14.5 | 0.00 | 0.00 | 0.00 | 73 | 1013.4 |
| 20260831214607 | 26 | 277 | 8.0 | 14.5 | 0.00 | 0.00 | 0.00 | 73 | 1013.4 |
| 20260831214032 | 26 | 261 | 4.8 | 14.5 | 0.00 | 0.00 | 0.00 | 74 | 1013.4 |
| 20260831213533 | 26 | 279 | 6.4 | 16.1 | 0.00 | 0.00 | 0.00 | 74 | 1013.5 |
| 20260831213053 | 26 | 224 | 6.4 | 16.1 | 0.00 | 0.00 | 0.00 | 74 | 1013.5 |
| 20260831212533 | 25 | 290 | 8.0 | 17.7 | 0.00 | 0.00 | 0.00 | 74 | 1013.5 |
| 20260831212033 | 25 | 330 | 6.4 | 17.7 | 0.00 | 0.00 | 0.00 | 74 | 1013.6 |
| 20260831211601 | 25 | 268 | 6.4 | 17.7 | 0.00 | 0.00 | 0.00 | 74 | 1013.6 |
| 20260831211035 | 26 | 360 | 6.4 | 16.1 | 0.00 | 0.00 | 0.00 | 74 | 1013.6 |
| 20260831210531 | 25 | 281 | 8.0 | 16.1 | 0.00 | 0.00 | 0.00 | 74 | 1013.8 |
| 20260831210057 | 25 | 292 | 6.4 | 16.1 | 0.00 | 0.00 | 0.00 | 75 | 1013.8 |
| 20260831205536 | 25 | 284 | 6.4 | 14.5 | 0.00 | 0.00 | 0.00 | 74 | 1013.8 |
| 20260831205036 | 25 | 252 | 6.4 | 16.1 | 0.00 | 0.00 | 0.00 | 74 | 1013.8 |
| 20260831204558 | 25 | 227 | 6.4 | 16.1 | 0.00 | 0.00 | 0.00 | 74 | 1013.9 |
| 20260831204039 | 25 | 260 | 6.4 | 14.5 | 0.00 | 0.00 | 0.00 | 74 | 1013.9 |
| 20260831203536 | 25 | 272 | 4.8 | 14.5 | 0.00 | 0.00 | 0.00 | 75 | 1013.9 |
| 20260831203050 | 25 | 255 | 8.0 | 19.3 | 0.00 | 0.00 | 0.00 | 75 | 1014.0 |
| 20260831202533 | 25 | 268 | 8.0 | 19.3 | 0.00 | 0.00 | 0.00 | 75 | 1013.9 |
| 20260831202036 | 25 | 224 | 4.8 | 16.1 | 0.00 | 0.00 | 0.00 | 76 | 1014.0 |
| 20260831201553 | 25 | 279 | 8.0 | 16.1 | 0.00 | 0.00 | 0.00 | 75 | 1014.0 |
| 20260831201036 | 25 | 312 | 6.4 | 14.5 | 0.00 | 0.00 | 0.00 | 75 | 1014.0 |
| 20260831200535 | 25 | 265 | 6.4 | 14.5 | 0.00 | 0.00 | 0.00 | 74 | 1014.0 |
| 20260831200110 | 25 | 266 | 6.4 | 14.5 | 0.00 | 0.00 | 0.00 | 74 | 1014.0 |
| 20260831195535 | 25 | 188 | 6.4 | 14.5 | 0.00 | 0.00 | 0.00 | 75 | 1014.0 |
| 20260831195037 | 25 | 248 | 6.4 | 14.5 | 0.00 | 0.00 | 0.00 | 75 | 1013.9 |
| 20260831194640 | 25 | 278 | 6.4 | 12.9 | 0.00 | 0.00 | 0.00 | 76 | 1014.0 |
| 20260831194037 | 25 | 265 | 6.4 | 14.5 | 0.00 | 0.00 | 0.00 | 76 | 1014.1 |
| 20260831193536 | 25 | 301 | 6.4 | 14.5 | 0.00 | 0.00 | 0.00 | 76 | 1014.0 |
| 20260831193100 | 25 | 277 | 6.4 | 14.5 | 0.00 | 0.00 | 0.00 | 75 | 1014.1 |
| 20260831192535 | 25 | 261 | 3.2 | 14.5 | 0.00 | 0.00 | 0.00 | 76 | 1014.1 |
| 20260831192035 | 25 | 277 | 6.4 | 14.5 | 0.00 | 0.00 | 0.00 | 76 | 1014.2 |
| 20260831191558 | 25 | 307 | 6.4 | 12.9 | 0.00 | 0.00 | 0.00 | 75 | 1014.1 |
| 20260831191040 | 25 | 263 | 4.8 | 12.9 | 0.00 | 0.00 | 0.00 | 77 | 1014.2 |
| 20260831190535 | 25 | 217 | 4.8 | 12.9 | 0.00 | 0.00 | 0.00 | 77 | 1014.2 |
| 20260831190109 | 25 | 267 | 6.4 | 17.7 | 0.00 | 0.00 | 0.00 | 77 | 1014.1 |
| 20260831185535 | 25 | 210 | 6.4 | 17.7 | 0.00 | 0.00 | 0.00 | 77 | 1014.1 |
| 20260831185035 | 25 | 247 | 6.4 | 14.5 | 0.00 | 0.00 | 0.00 | 77 | 1014.2 |
| 20260831184559 | 25 | 306 | 4.8 | 12.9 | 0.00 | 0.00 | 0.00 | 77 | 1014.1 |
| 20260831184034 | 25 | 250 | 4.8 | 12.9 | 0.00 | 0.00 | 0.00 | 77 | 1014.1 |
| 20260831183536 | 24 | 239 | 4.8 | 12.9 | 0.00 | 0.00 | 0.00 | 77 | 1014.2 |
| 20260831183110 | 24 | 292 | 4.8 | 14.5 | 0.00 | 0.00 | 0.00 | 78 | 1014.2 |
| 20260831182536 | 24 | 259 | 6.4 | 14.5 | 0.00 | 0.00 | 0.00 | 78 | 1014.2 |
| 20260831182033 | 24 | 219 | 6.4 | 14.5 | 0.00 | 0.00 | 0.00 | 78 | 1014.2 |
| 20260831181609 | 24 | 265 | 4.8 | 12.9 | 0.00 | 0.00 | 0.00 | 79 | 1014.1 |
| 20260831181036 | 24 | 298 | 4.8 | 12.9 | 0.00 | 0.00 | 0.00 | 79 | 1014.1 |
| 20260831180533 | 23 | 286 | 4.8 | 16.1 | 0.00 | 0.00 | 0.00 | 79 | 1014.1 |
| 20260831180115 | 23 | 302 | 6.4 | 16.1 | 0.00 | 0.00 | 0.00 | 78 | 1014.1 |
| 20260831175537 | 23 | 277 | 6.4 | 12.9 | 0.00 | 0.00 | 0.00 | 79 | 1014.1 |
| 20260831175037 | 23 | 222 | 4.8 | 12.9 | 0.00 | 0.00 | 0.00 | 79 | 1014.1 |
| 20260831174556 | 23 | 217 | 4.8 | 12.9 | 0.00 | 0.00 | 0.00 | 80 | 1014.0 |
| 20260831174036 | 23 | 236 | 4.8 | 12.9 | 0.00 | 0.00 | 0.00 | 79 | 1014.0 |
| 20260831173541 | 23 | 298 | 4.8 | 12.9 | 0.00 | 0.00 | 0.00 | 81 | 1013.9 |
| 20260831173054 | 23 | 256 | 4.8 | 12.9 | 0.00 | 0.00 | 0.00 | 81 | 1013.9 |
| 20260831172535 | 23 | 234 | 3.2 | 11.3 | 0.00 | 0.00 | 0.00 | 81 | 1013.9 |
| 20260831172035 | 23 | 273 | 4.8 | 11.3 | 0.00 | 0.00 | 0.00 | 81 | 1013.9 |
| 20260831171602 | 23 | 277 | 3.2 | 11.3 | 0.00 | 0.00 | 0.00 | 81 | 1013.9 |
| 20260831171035 | 23 | 273 | 4.8 | 11.3 | 0.00 | 0.00 | 0.00 | 81 | 1013.8 |
| 20260831170535 | 23 | 265 | 4.8 | 11.3 | 0.00 | 0.00 | 0.00 | 82 | 1013.8 |
| 20260831170101 | 23 | 265 | 4.8 | 9.7 | 0.00 | 0.00 | 0.00 | 82 | 1013.8 |
| 20260831165535 | 22 | 219 | 3.2 | 11.3 | 0.00 | 0.00 | 0.00 | 82 | 1013.8 |
| 20260831165035 | 22 | 317 | 4.8 | 11.3 | 0.00 | 0.00 | 0.00 | 81 | 1013.8 |
| 20260831164558 | 22 | 296 | 3.2 | 11.3 | 0.00 | 0.00 | 0.00 | 82 | 1013.8 |
| 20260831164037 | 22 | 293 | 4.8 | 11.3 | 0.00 | 0.00 | 0.00 | 82 | 1013.7 |
| 20260831163536 | 22 | 296 | 4.8 | 9.7 | 0.00 | 0.00 | 0.00 | 82 | 1013.7 |
| 20260831163103 | 22 | 297 | 3.2 | 9.7 | 0.00 | 0.00 | 0.00 | 83 | 1013.7 |
| 20260831162535 | 22 | 266 | 3.2 | 9.7 | 0.00 | 0.00 | 0.00 | 83 | 1013.7 |
| 20260831162035 | 22 | 263 | 3.2 | 9.7 | 0.00 | 0.00 | 0.00 | 83 | 1013.6 |
| 20260831161605 | 22 | 251 | 0.0 | 6.4 | 0.00 | 0.00 | 0.00 | 83 | 1013.6 |
| 20260831161035 | 22 | 0 | 0.0 | 6.4 | 0.00 | 0.00 | 0.00 | 83 | 1013.6 |
| 20260831160535 | 22 | 228 | 1.6 | 8.0 | 0.00 | 0.00 | 0.00 | 83 | 1013.5 |
| 20260831160059 | 22 | 0 | 1.6 | 8.0 | 0.00 | 0.00 | 0.00 | 84 | 1013.6 |
| 20260831155532 | 22 | 306 | 1.6 | 4.8 | 0.00 | 0.00 | 0.00 | 84 | 1013.6 |
| 20260831155036 | 21 | 288 | 0.0 | 6.4 | 0.00 | 0.00 | 0.00 | 84 | 1013.6 |
| 20260831154628 | 21 | 0 | 0.0 | 6.4 | 0.00 | 0.00 | 0.00 | 84 | 1013.7 |
| 20260831154036 | 21 | 246 | 1.6 | 6.4 | 0.00 | 0.00 | 0.00 | 84 | 1013.7 |
| 20260831153535 | 21 | 249 | 1.6 | 6.4 | 0.00 | 0.00 | 0.00 | 85 | 1013.6 |
| 20260831153058 | 21 | 0 | 0.0 | 4.8 | 0.00 | 0.00 | 0.00 | 85 | 1013.6 |
| 20260831152538 | 21 | 216 | 3.2 | 4.8 | 0.00 | 0.00 | 0.00 | 85 | 1013.6 |
| 20260831152035 | 21 | 205 | 1.6 | 4.8 | 0.00 | 0.00 | 0.00 | 85 | 1013.5 |
| 20260831151615 | 21 | 0 | 0.0 | 3.2 | 0.00 | 0.00 | 0.00 | 85 | 1013.5 |
| 20260831151035 | 21 | 0 | 0.0 | 0.0 | 0.00 | 0.00 | 0.00 | 86 | 1013.5 |
| 20260831150538 | 21 | 0 | 0.0 | 3.2 | 0.00 | 0.00 | 0.00 | 86 | 1013.5 |
| 20260831150100 | 21 | 0 | 0.0 | 3.2 | 0.00 | 0.00 | 0.00 | 86 | 1013.5 |
| 20260831145537 | 20 | 0 | 0.0 | 3.2 | 0.00 | 0.00 | 0.00 | 86 | 1013.4 |
| 20260831145036 | 20 | 0 | 0.0 | 3.2 | 0.00 | 0.00 | 0.00 | 86 | 1013.4 |
| 20260831144600 | 20 | 0 | 0.0 | 1.6 | 0.00 | 0.00 | 0.00 | 86 | 1013.4 |
| 20260831144036 | 20 | 0 | 0.0 | 1.6 | 0.00 | 0.00 | 0.00 | 86 | 1013.4 |
| 20260831143533 | 20 | 0 | 0.0 | 1.6 | 0.00 | 0.00 | 0.00 | 86 | 1013.4 |
| 20260831143054 | 20 | 0 | 0.0 | 1.6 | 0.00 | 0.00 | 0.00 | 86 | 1013.4 |
| 20260831142536 | 20 | 0 | 0.0 | 1.6 | 0.00 | 0.00 | 0.00 | 86 | 1013.3 |
| 20260831142035 | 20 | 0 | 0.0 | 0.0 | 0.00 | 0.00 | 0.00 | 86 | 1013.2 |
| 20260831141602 | 20 | 0 | 0.0 | 1.6 | 0.00 | 0.00 | 0.00 | 86 | 1013.2 |
| 20260831141038 | 20 | 0 | 0.0 | 1.6 | 0.00 | 0.00 | 0.00 | 86 | 1013.1 |
| 20260831140534 | 20 | 0 | 0.0 | 1.6 | 0.00 | 0.00 | 0.00 | 86 | 1013.0 |
| 20260831140100 | 20 | 0 | 0.0 | 1.6 | 0.00 | 0.00 | 0.00 | 85 | 1012.9 |
| 20260831135536 | 20 | 0 | 0.0 | 0.0 | 0.00 | 0.00 | 0.00 | 85 | 1012.8 |
| 20260831135039 | 20 | 0 | 0.0 | 0.0 | 0.00 | 0.00 | 0.00 | 85 | 1012.7 |
| 20260831134557 | 20 | 0 | 0.0 | 0.0 | 0.00 | 0.00 | 0.00 | 85 | 1012.7 |
| 20260831134035 | 20 | 0 | 0.0 | 0.0 | 0.00 | 0.00 | 0.00 | 85 | 1012.6 |
| 20260831133535 | 20 | 0 | 0.0 | 0.0 | 0.00 | 0.00 | 0.00 | 85 | 1012.5 |
| 20260831133058 | 20 | 0 | 0.0 | 0.0 | 0.00 | 0.00 | 0.00 | 85 | 1012.5 |
| 20260831132535 | 20 | 0 | 0.0 | 3.2 | 0.00 | 0.00 | 0.00 | 85 | 1012.4 |
| 20260831132035 | 20 | 0 | 0.0 | 3.2 | 0.00 | 0.00 | 0.00 | 85 | 1012.3 |
| 20260831131555 | 20 | 201 | 0.0 | 3.2 | 0.00 | 0.00 | 0.00 | 84 | 1012.3 |
| 20260831131035 | 21 | 0 | 0.0 | 3.2 | 0.00 | 0.00 | 0.00 | 85 | 1012.3 |
| 20260831130536 | 21 | 0 | 0.0 | 0.0 | 0.00 | 0.00 | 0.00 | 85 | 1012.2 |
| 20260831125535 | 21 | 0 | 0.0 | 1.6 | 0.00 | 0.00 | 0.00 | 85 | 1012.3 |
| 20260831125032 | 21 | 0 | 0.0 | 0.0 | 0.00 | 0.00 | 0.00 | 85 | 1012.2 |
| 20260831124604 | 21 | 0 | 0.0 | 0.0 | 0.00 | 0.00 | 0.00 | 85 | 1012.2 |
| 20260831124032 | 21 | 0 | 0.0 | 0.0 | 0.00 | 0.00 | 0.00 | 85 | 1012.2 |
| 20260831123535 | 21 | 0 | 0.0 | 0.0 | 0.00 | 0.00 | 0.00 | 85 | 1012.2 |
| 20260831123057 | 21 | 0 | 0.0 | 0.0 | 0.00 | 0.00 | 0.00 | 85 | 1012.2 |
| 20260831122533 | 21 | 0 | 0.0 | 0.0 | 0.00 | 0.00 | 0.00 | 85 | 1012.3 |
| 20260831122034 | 21 | 0 | 0.0 | 0.0 | 0.00 | 0.00 | 0.00 | 85 | 1012.2 |
| 20260831121603 | 21 | 0 | 0.0 | 0.0 | 0.00 | 0.00 | 0.00 | 85 | 1012.2 |
| 20260831121035 | 21 | 0 | 0.0 | 0.0 | 0.00 | 0.00 | 0.00 | 85 | 1012.2 |
| 20260831120535 | 21 | 0 | 0.0 | 0.0 | 0.00 | 0.00 | 0.00 | 85 | 1012.1 |
| 20260831120057 | 21 | 0 | 0.0 | 0.0 | 0.00 | 0.00 | 0.00 | 86 | 1012.1 |
| 20260831115535 | 21 | 0 | 0.0 | 0.0 | 0.00 | 0.00 | 0.00 | 86 | 1012.2 |
| 20260831115036 | 21 | 0 | 0.0 | 1.6 | 0.00 | 0.00 | 0.00 | 86 | 1012.2 |
| 20260831114558 | 21 | 0 | 0.0 | 1.6 | 0.00 | 0.00 | 0.00 | 86 | 1012.2 |
| 20260831114036 | 21 | 0 | 0.0 | 0.0 | 0.00 | 0.00 | 0.00 | 86 | 1012.2 |
| 20260831113535 | 21 | 0 | 0.0 | 0.0 | 0.00 | 0.00 | 0.00 | 86 | 1012.2 |
| 20260831113105 | 21 | 0 | 0.0 | 1.6 | 0.00 | 0.00 | 0.00 | 86 | 1012.2 |
| 20260831112536 | 21 | 0 | 0.0 | 1.6 | 0.00 | 0.00 | 0.00 | 87 | 1012.2 |
| 20260831112043 | 21 | 0 | 0.0 | 1.6 | 0.00 | 0.00 | 0.00 | 87 | 1012.3 |
| 20260831111600 | 21 | 0 | 0.0 | 1.6 | 0.00 | 0.00 | 0.00 | 87 | 1012.2 |
| 20260831111035 | 21 | 0 | 0.0 | 1.6 | 0.00 | 0.00 | 0.00 | 87 | 1012.3 |
| 20260831110535 | 21 | 0 | 0.0 | 1.6 | 0.00 | 0.00 | 0.00 | 87 | 1012.4 |
| 20260831110057 | 21 | 0 | 0.0 | 1.6 | 0.00 | 0.00 | 0.00 | 87 | 1012.3 |
| 20260831105535 | 21 | 0 | 0.0 | 1.6 | 0.00 | 0.00 | 0.00 | 87 | 1012.2 |
| 20260831105032 | 21 | 0 | 0.0 | 1.6 | 0.00 | 0.00 | 0.00 | 87 | 1012.3 |
| 20260831104607 | 21 | 0 | 0.0 | 1.6 | 0.00 | 0.00 | 0.00 | 87 | 1012.3 |
| 20260831104032 | 21 | 0 | 0.0 | 4.8 | 0.00 | 0.00 | 0.00 | 88 | 1012.3 |
| 20260831103535 | 21 | 0 | 0.0 | 4.8 | 0.00 | 0.00 | 0.00 | 88 | 1012.4 |
| 20260831103053 | 21 | 0 | 1.6 | 4.8 | 0.00 | 0.00 | 0.00 | 87 | 1012.4 |
| 20260831102535 | 21 | 0 | 0.0 | 3.2 | 0.00 | 0.00 | 0.00 | 88 | 1012.4 |
| 20260831102034 | 21 | 0 | 0.0 | 6.4 | 0.00 | 0.00 | 0.00 | 88 | 1012.4 |
| 20260831101602 | 21 | 0 | 0.0 | 8.0 | 0.00 | 0.00 | 0.00 | 88 | 1012.3 |
| 20260831101036 | 21 | 242 | 3.2 | 8.0 | 0.00 | 0.00 | 0.00 | 88 | 1012.4 |
| 20260831100534 | 21 | 0 | 0.0 | 9.7 | 0.00 | 0.00 | 0.00 | 88 | 1012.3 |
| 20260831100108 | 21 | 0 | 1.6 | 9.7 | 0.00 | 0.00 | 0.00 | 88 | 1012.4 |
| 20260831095535 | 21 | 225 | 1.6 | 8.0 | 0.00 | 0.00 | 0.00 | 89 | 1012.4 |
| 20260831095035 | 21 | 192 | 1.6 | 4.8 | 0.00 | 0.00 | 0.00 | 89 | 1012.4 |
| 20260831094553 | 21 | 0 | 0.0 | 4.8 | 0.00 | 0.00 | 0.00 | 89 | 1012.4 |
| 20260831094035 | 21 | 196 | 0.0 | 4.8 | 0.00 | 0.00 | 0.00 | 89 | 1012.4 |
| 20260831093536 | 21 | 215 | 0.0 | 3.2 | 0.00 | 0.00 | 0.00 | 89 | 1012.4 |
| 20260831093053 | 21 | 0 | 0.0 | 3.2 | 0.00 | 0.00 | 0.00 | 89 | 1012.4 |
| 20260831092535 | 21 | 0 | 0.0 | 3.2 | 0.00 | 0.00 | 0.00 | 90 | 1012.4 |
| 20260831092040 | 21 | 185 | 0.0 | 3.2 | 0.00 | 0.00 | 0.00 | 90 | 1012.4 |
| 20260831091559 | 21 | 180 | 0.0 | 1.6 | 0.00 | 0.00 | 0.00 | 90 | 1012.4 |
| 20260831091035 | 21 | 180 | 0.0 | 1.6 | 0.00 | 0.00 | 0.00 | 90 | 1012.5 |
| 20260831090535 | 21 | 0 | 0.0 | 3.2 | 0.00 | 0.00 | 0.00 | 90 | 1012.4 |
| 20260831090056 | 21 | 0 | 0.0 | 3.2 | 0.00 | 0.00 | 0.00 | 90 | 1012.4 |
| 20260831085535 | 21 | 0 | 0.0 | 1.6 | 0.00 | 0.00 | 0.00 | 90 | 1012.4 |
| 20260831085036 | 21 | 0 | 0.0 | 1.6 | 0.00 | 0.00 | 0.00 | 89 | 1012.4 |
| 20260831084612 | 21 | 0 | 0.0 | 1.6 | 0.00 | 0.00 | 0.00 | 89 | 1012.5 |
| 20260831084033 | 21 | 0 | 0.0 | 1.6 | 0.00 | 0.00 | 0.00 | 89 | 1012.5 |
| 20260831083539 | 21 | 0 | 0.0 | 3.2 | 0.00 | 0.00 | 0.00 | 89 | 1012.5 |
| 20260831083104 | 21 | 194 | 0.0 | 3.2 | 0.00 | 0.00 | 0.00 | 89 | 1012.5 |
| 20260831082539 | 21 | 190 | 0.0 | 3.2 | 0.00 | 0.00 | 0.00 | 89 | 1012.5 |
| 20260831082035 | 21 | 0 | 0.0 | 1.6 | 0.00 | 0.00 | 0.00 | 90 | 1012.6 |
| 20260831081556 | 21 | 0 | 0.0 | 1.6 | 0.00 | 0.00 | 0.00 | 90 | 1012.5 |
| 20260831081035 | 21 | 0 | 0.0 | 3.2 | 0.00 | 0.00 | 0.00 | 90 | 1012.7 |
| 20260831080532 | 21 | 0 | 0.0 | 3.2 | 0.00 | 0.00 | 0.00 | 90 | 1012.5 |
| 20260831080105 | 21 | 265 | 0.0 | 3.2 | 0.00 | 0.00 | 0.00 | 90 | 1012.7 |
| 20260831075534 | 21 | 0 | 0.0 | 1.6 | 0.00 | 0.00 | 0.00 | 90 | 1012.7 |
| 20260831075035 | 21 | 0 | 0.0 | 1.6 | 0.00 | 0.00 | 0.00 | 90 | 1012.7 |
| 20260831074557 | 21 | 0 | 0.0 | 3.2 | 0.00 | 0.00 | 0.00 | 90 | 1012.7 |
| 20260831074035 | 21 | 0 | 0.0 | 3.2 | 0.00 | 0.00 | 0.00 | 90 | 1012.7 |
| 20260831073532 | 21 | 0 | 0.0 | 3.2 | 0.00 | 0.00 | 0.00 | 90 | 1012.8 |
| 20260831073104 | 21 | 0 | 0.0 | 3.2 | 0.00 | 0.00 | 0.00 | 89 | 1012.8 |
| 20260831072537 | 21 | 0 | 0.0 | 1.6 | 0.00 | 0.00 | 0.00 | 89 | 1012.7 |
| 20260831072038 | 21 | 0 | 0.0 | 0.0 | 0.00 | 0.00 | 0.00 | 89 | 1012.8 |
| 20260831071557 | 21 | 0 | 0.0 | 0.0 | 0.00 | 0.00 | 0.00 | 89 | 1012.8 |
| 20260831071035 | 21 | 0 | 0.0 | 0.0 | 0.00 | 0.00 | 0.00 | 89 | 1012.8 |
| 20260831070535 | 21 | 0 | 0.0 | 0.0 | 0.00 | 0.00 | 0.00 | 89 | 1012.7 |
| 20260831070109 | 21 | 0 | 0.0 | 0.0 | 0.00 | 0.00 | 0.00 | 89 | 1012.8 |
| 20260831065531 | 21 | 0 | 0.0 | 0.0 | 0.00 | 0.00 | 0.00 | 89 | 1012.7 |
| 20260831065037 | 21 | 0 | 0.0 | 0.0 | 0.00 | 0.00 | 0.00 | 89 | 1012.7 |
| 20260831064559 | 21 | 0 | 0.0 | 0.0 | 0.00 | 0.00 | 0.00 | 89 | 1012.7 |
| 20260831064036 | 21 | 0 | 0.0 | 1.6 | 0.00 | 0.00 | 0.00 | 89 | 1012.6 |
| 20260831063535 | 21 | 0 | 0.0 | 3.2 | 0.00 | 0.00 | 0.00 | 89 | 1012.6 |
| 20260831063056 | 21 | 0 | 0.0 | 3.2 | 0.00 | 0.00 | 0.00 | 88 | 1012.6 |
| 20260831062534 | 21 | 0 | 0.0 | 3.2 | 0.00 | 0.00 | 0.00 | 88 | 1012.6 |
| 20260831062034 | 21 | 0 | 0.0 | 1.6 | 0.00 | 0.00 | 0.00 | 88 | 1012.5 |
| 20260831061554 | 21 | 0 | 0.0 | 1.6 | 0.00 | 0.00 | 0.00 | 88 | 1012.5 |
| 20260831061034 | 21 | 0 | 0.0 | 1.6 | 0.00 | 0.00 | 0.00 | 88 | 1012.5 |
| 20260831060532 | 21 | 0 | 0.0 | 0.0 | 0.00 | 0.00 | 0.00 | 88 | 1012.5 |
| 20260831060106 | 21 | 0 | 0.0 | 0.0 | 0.00 | 0.00 | 0.00 | 88 | 1012.4 |
| 20260831055535 | 21 | 0 | 0.0 | 0.0 | 0.00 | 0.00 | 0.00 | 88 | 1012.5 |
| 20260831055034 | 21 | 0 | 0.0 | 0.0 | 0.00 | 0.00 | 0.00 | 88 | 1012.6 |
| 20260831054604 | 21 | 0 | 0.0 | 0.0 | 0.00 | 0.00 | 0.00 | 88 | 1012.5 |
| 20260831054035 | 21 | 0 | 0.0 | 0.0 | 0.00 | 0.00 | 0.00 | 88 | 1012.5 |
| 20260831053535 | 21 | 0 | 0.0 | 1.6 | 0.00 | 0.00 | 0.00 | 88 | 1012.6 |
| 20260831053057 | 21 | 0 | 0.0 | 1.6 | 0.00 | 0.00 | 0.00 | 88 | 1012.6 |
| 20260831052538 | 21 | 0 | 0.0 | 1.6 | 0.00 | 0.00 | 0.00 | 88 | 1012.7 |
| 20260831052031 | 21 | 0 | 0.0 | 1.6 | 0.00 | 0.00 | 0.00 | 88 | 1012.6 |
| 20260831051555 | 21 | 0 | 0.0 | 1.6 | 0.00 | 0.00 | 0.00 | 88 | 1012.6 |
| 20260831051033 | 21 | 0 | 0.0 | 1.6 | 0.00 | 0.00 | 0.00 | 88 | 1012.6 |
| 20260831050535 | 21 | 0 | 0.0 | 0.0 | 0.00 | 0.00 | 0.00 | 88 | 1012.6 |
| 20260831050106 | 21 | 0 | 0.0 | 0.0 | 0.00 | 0.00 | 0.00 | 88 | 1012.6 |
| 20260831045535 | 21 | 0 | 0.0 | 0.0 | 0.00 | 0.00 | 0.00 | 88 | 1012.6 |
| 20260831045037 | 21 | 0 | 0.0 | 0.0 | 0.00 | 0.00 | 0.00 | 87 | 1012.5 |
| 20260831044600 | 21 | 0 | 0.0 | 0.0 | 0.00 | 0.00 | 0.00 | 87 | 1012.5 |
| 20260831044034 | 21 | 0 | 0.0 | 1.6 | 0.00 | 0.00 | 0.00 | 87 | 1012.5 |
| 20260831043532 | 21 | 0 | 0.0 | 1.6 | 0.00 | 0.00 | 0.00 | 87 | 1012.4 |
| 20260831043057 | 21 | 265 | 0.0 | 3.2 | 0.00 | 0.00 | 0.00 | 87 | 1012.4 |
| 20260831042536 | 21 | 0 | 0.0 | 3.2 | 0.00 | 0.00 | 0.00 | 87 | 1012.3 |
| 20260831042036 | 21 | 0 | 0.0 | 4.8 | 0.00 | 0.00 | 0.00 | 87 | 1012.4 |
| 20260831041602 | 21 | 265 | 0.0 | 4.8 | 0.00 | 0.00 | 0.00 | 87 | 1012.3 |
| 20260831041038 | 21 | 265 | 1.6 | 4.8 | 0.00 | 0.00 | 0.00 | 87 | 1012.2 |
| 20260831040534 | 21 | 281 | 1.6 | 4.8 | 0.00 | 0.00 | 0.00 | 87 | 1012.2 |
| 20260831040105 | 21 | 291 | 1.6 | 4.8 | 0.00 | 0.00 | 0.00 | 87 | 1012.1 |
| 20260831035532 | 21 | 278 | 1.6 | 4.8 | 0.00 | 0.00 | 0.00 | 86 | 1012.1 |
| 20260831035035 | 22 | 272 | 1.6 | 4.8 | 0.00 | 0.00 | 0.00 | 86 | 1012.1 |
| 20260831034607 | 22 | 300 | 1.6 | 4.8 | 0.00 | 0.00 | 0.00 | 86 | 1012.0 |
| 20260831034035 | 22 | 258 | 1.6 | 4.8 | 0.00 | 0.00 | 0.00 | 86 | 1012.0 |
| 20260831033533 | 22 | 271 | 1.6 | 6.4 | 0.00 | 0.00 | 0.00 | 86 | 1012.0 |
| 20260831033059 | 22 | 284 | 1.6 | 6.4 | 0.00 | 0.00 | 0.00 | 86 | 1011.9 |
| 20260831032535 | 22 | 276 | 3.2 | 6.4 | 0.00 | 0.00 | 0.00 | 86 | 1011.9 |
| 20260831032034 | 22 | 237 | 1.6 | 8.0 | 0.00 | 0.00 | 0.00 | 86 | 1011.8 |
| 20260831031601 | 22 | 312 | 0.0 | 8.0 | 0.00 | 0.00 | 0.00 | 85 | 1011.7 |
| 20260831031031 | 22 | 290 | 3.2 | 8.0 | 0.00 | 0.00 | 0.00 | 85 | 1011.6 |
| 20260831030531 | 22 | 298 | 1.6 | 4.8 | 0.00 | 0.00 | 0.00 | 85 | 1011.5 |
| 20260831030107 | 22 | 288 | 1.6 | 4.8 | 0.00 | 0.00 | 0.00 | 85 | 1011.6 |
| 20260831025535 | 22 | 292 | 1.6 | 3.2 | 0.00 | 0.00 | 0.00 | 85 | 1011.6 |
| 20260831025031 | 22 | 0 | 0.0 | 4.8 | 0.00 | 0.00 | 0.00 | 85 | 1011.6 |
| 20260831024553 | 22 | 0 | 0.0 | 9.7 | 0.00 | 0.00 | 0.00 | 85 | 1011.6 |
| 20260831024035 | 22 | 207 | 1.6 | 9.7 | 0.00 | 0.00 | 0.00 | 85 | 1011.6 |
| 20260831023534 | 22 | 209 | 1.6 | 9.7 | 0.00 | 0.00 | 0.00 | 84 | 1011.5 |
| 20260831023058 | 22 | 267 | 1.6 | 6.4 | 0.00 | 0.00 | 0.00 | 84 | 1011.4 |
| 20260831022534 | 22 | 271 | 1.6 | 6.4 | 0.00 | 0.00 | 0.00 | 84 | 1011.4 |
| 20260831022034 | 22 | 227 | 0.0 | 6.4 | 0.00 | 0.00 | 0.00 | 84 | 1011.4 |
| 20260831021605 | 22 | 248 | 1.6 | 6.4 | 0.00 | 0.00 | 0.00 | 84 | 1011.3 |
| 20260831021032 | 23 | 0 | 0.0 | 8.0 | 0.00 | 0.00 | 0.00 | 84 | 1011.2 |
| 20260831020532 | 23 | 286 | 3.2 | 8.0 | 0.00 | 0.00 | 0.00 | 83 | 1011.3 |
| 20260831020108 | 23 | 211 | 3.2 | 8.0 | 0.00 | 0.00 | 0.00 | 83 | 1011.3 |
| 20260831015532 | 23 | 300 | 3.2 | 8.0 | 0.00 | 0.00 | 0.00 | 83 | 1011.2 |
| 20260831015034 | 23 | 294 | 3.2 | 8.0 | 0.00 | 0.00 | 0.00 | 82 | 1011.1 |
| 20260831014603 | 23 | 245 | 3.2 | 6.4 | 0.00 | 0.00 | 0.00 | 82 | 1011.1 |
| 20260831014033 | 23 | 273 | 1.6 | 8.0 | 0.00 | 0.00 | 0.00 | 82 | 1011.2 |
| 20260831013532 | 23 | 278 | 3.2 | 8.0 | 0.00 | 0.00 | 0.00 | 81 | 1011.1 |
| 20260831013102 | 24 | 223 | 3.2 | 8.0 | 0.00 | 0.00 | 0.00 | 81 | 1011.1 |
| 20260831012531 | 24 | 225 | 4.8 | 12.9 | 0.00 | 0.00 | 0.00 | 80 | 1011.1 |
| 20260831012032 | 24 | 317 | 1.6 | 12.9 | 0.00 | 0.00 | 0.00 | 80 | 1011.0 |
| 20260831011612 | 25 | 248 | 3.2 | 12.9 | 0.00 | 0.00 | 0.00 | 79 | 1011.2 |
| 20260831011032 | 25 | 307 | 3.2 | 11.3 | 0.00 | 0.00 | 0.00 | 79 | 1011.2 |
| 20260831010532 | 25 | 274 | 3.2 | 9.7 | 0.00 | 0.00 | 0.00 | 79 | 1011.2 |
| 20260831010057 | 25 | 236 | 3.2 | 9.7 | 0.00 | 0.00 | 0.00 | 77 | 1011.2 |
| 20260831005533 | 25 | 235 | 4.8 | 11.3 | 0.00 | 0.00 | 0.00 | 77 | 1011.3 |
| 20260831005033 | 25 | 234 | 4.8 | 11.3 | 0.00 | 0.00 | 0.00 | 77 | 1011.2 |
| 20260831004556 | 25 | 213 | 3.2 | 11.3 | 0.00 | 0.00 | 0.00 | 77 | 1011.3 |
| 20260831004033 | 26 | 256 | 6.4 | 11.3 | 0.00 | 0.00 | 0.00 | 76 | 1011.1 |
| 20260831003532 | 26 | 227 | 3.2 | 9.7 | 0.00 | 0.00 | 0.00 | 76 | 1011.2 |
| 20260831003054 | 26 | 273 | 4.8 | 11.3 | 0.00 | 0.00 | 0.00 | 75 | 1011.2 |
| 20260831002535 | 26 | 255 | 4.8 | 14.5 | 0.00 | 0.00 | 0.00 | 75 | 1011.2 |
| 20260831002031 | 26 | 209 | 4.8 | 14.5 | 0.00 | 0.00 | 0.00 | 74 | 1011.3 |
| 20260831001603 | 26 | 269 | 6.4 | 14.5 | 0.00 | 0.00 | 0.00 | 74 | 1011.3 |
| 20260831001031 | 26 | 266 | 6.4 | 12.9 | 0.00 | 0.00 | 0.00 | 74 | 1011.2 |
| 20260831000531 | 26 | 209 | 4.8 | 12.9 | 0.00 | 0.00 | 0.00 | 74 | 1011.3 |
| 20260831000103 | 26 | 275 | 4.8 | 12.9 | 0.00 | 0.00 | 0.00 | 74 | 1011.2 |
| 20260830235531 | 26 | 237 | 6.4 | 12.9 | 0.00 | 0.00 | 0.00 | 74 | 1011.2 |
| 20260830235033 | 26 | 0 | 4.8 | 12.9 | 0.00 | 0.00 | 0.00 | 74 | 1011.3 |
| 20260830234557 | 26 | 236 | 4.8 | 12.9 | 0.00 | 0.00 | 0.00 | 74 | 1011.4 |
| 20260830234032 | 26 | 310 | 4.8 | 12.9 | 0.00 | 0.00 | 0.00 | 75 | 1011.4 |
| 20260830233533 | 26 | 242 | 6.4 | 12.9 | 0.00 | 0.00 | 0.00 | 75 | 1011.3 |
| 20260830233055 | 26 | 308 | 4.8 | 16.1 | 0.00 | 0.00 | 0.00 | 74 | 1011.3 |
| 20260830232538 | 26 | 289 | 4.8 | 16.1 | 0.00 | 0.00 | 0.00 | 74 | 1011.2 |
| 20260830232033 | 27 | 272 | 4.8 | 16.1 | 0.00 | 0.00 | 0.00 | 74 | 1011.3 |
| 20260830231558 | 27 | 235 | 3.2 | 12.9 | 0.00 | 0.00 | 0.00 | 75 | 1011.3 |
| 20260830231033 | 26 | 265 | 6.4 | 12.9 | 0.00 | 0.00 | 0.00 | 74 | 1011.4 |
| 20260830230532 | 26 | 248 | 3.2 | 12.9 | 0.00 | 0.00 | 0.00 | 74 | 1011.4 |
| 20260830225531 | 26 | 309 | 4.8 | 12.9 | 0.00 | 0.00 | 0.00 | 75 | 1011.4 |
| 20260830225032 | 26 | 259 | 4.8 | 16.1 | 0.00 | 0.00 | 0.00 | 76 | 1011.5 |
| 20260830224621 | 26 | 288 | 3.2 | 16.1 | 0.00 | 0.00 | 0.00 | 76 | 1011.6 |
| 20260830224035 | 26 | 279 | 8.0 | 16.1 | 0.00 | 0.00 | 0.00 | 75 | 1011.6 |
| 20260830223532 | 26 | 265 | 8.0 | 14.5 | 0.00 | 0.00 | 0.00 | 75 | 1011.7 |
| 20260830223056 | 26 | 276 | 8.0 | 16.1 | 0.00 | 0.00 | 0.00 | 74 | 1011.7 |
| 20260830222535 | 26 | 212 | 8.0 | 16.1 | 0.00 | 0.00 | 0.00 | 75 | 1011.7 |
| 20260830222032 | 27 | 270 | 8.0 | 14.5 | 0.00 | 0.00 | 0.00 | 75 | 1011.7 |
| 20260830221614 | 27 | 286 | 4.8 | 14.5 | 0.00 | 0.00 | 0.00 | 74 | 1011.7 |
| 20260830221032 | 27 | 323 | 6.4 | 16.1 | 0.00 | 0.00 | 0.00 | 74 | 1011.7 |
| 20260830220532 | 27 | 272 | 4.8 | 16.1 | 0.00 | 0.00 | 0.00 | 74 | 1011.8 |
| 20260830215531 | 27 | 282 | 6.4 | 12.9 | 0.00 | 0.00 | 0.00 | 74 | 1011.9 |